Time,TemperatureF,DewpointF,PressureIn,WindDirection,WindDirectionDegrees,WindSpeedMPH,WindSpeedGustMPH,Humidity,HourlyPrecipIn,Conditions,Clouds,dailyrainin,SoftwareType,DateUTC
2013-01-06 16:33:00,37.0,32.0,30.00,SW,219,2.0,10.0,82,-99.99,,,-99.99,,2013-01-06 21:33:00,
2013-01-06 16:42:00,37.0,32.0,30.00,SW,219,2.0,10.0,82,-99.99,,,-99.99,,2013-01-06 21:42:00,
2013-01-06 16:53:00,37.0,32.0,30.01,West,280,1.0,9.0,83,-99.99,,,-99.99,,2013-01-06 21:53:00,
2013-01-06 17:02:00,37.0,33.0,30.01,West,280,2.0,8.0,84,-99.99,,,-99.99,,2013-01-06 22:02:00,
2013-01-06 17:12:00,37.0,33.0,30.01,West,280,2.0,8.0,84,-99.99,,,-99.99,,2013-01-06 22:12:00,
2013-01-06 17:22:00,37.0,33.0,30.02,SSE,163,2.0,7.0,84,-99.99,,,-99.99,,2013-01-06 22:22:00,
2013-01-06 17:33:00,36.0,32.0,30.02,West,273,3.0,6.0,86,-99.99,,,-99.99,,2013-01-06 22:33:00,
2013-01-06 17:43:00,36.0,32.0,30.02,West,273,3.0,6.0,86,-99.99,,,-99.99,,2013-01-06 22:43:00,
2013-01-06 17:53:00,36.0,33.0,30.03,West,280,3.0,6.0,88,-99.99,,,-99.99,,2013-01-06 22:53:00,
2013-01-06 18:02:00,36.0,33.0,30.03,WNW,293,1.0,6.0,89,-99.99,,,-99.99,,2013-01-06 23:02:00,
2013-01-06 18:12:00,36.0,33.0,30.03,WNW,293,1.0,6.0,89,-99.99,,,-99.99,,2013-01-06 23:12:00,
2013-01-06 18:22:00,36.0,33.0,30.03,North,0,0.0,0.0,90,-99.99,,,-99.99,,2013-01-06 23:22:00,
2013-01-06 18:33:00,36.0,33.0,30.04,North,0,0.0,0.0,90,-99.99,,,-99.99,,2013-01-06 23:33:00,
2013-01-06 18:43:00,36.0,33.0,30.04,North,0,0.0,0.0,90,-99.99,,,-99.99,,2013-01-06 23:43:00,
2013-01-06 18:53:00,36.0,34.0,30.05,North,0,0.0,0.0,91,-99.99,,,-99.99,,2013-01-06 23:53:00,
2013-01-06 19:02:00,36.0,34.0,30.06,North,0,0.0,0.0,92,-99.99,,,-99.99,,2013-01-07 00:02:00,
2013-01-06 19:12:00,36.0,34.0,30.06,North,0,0.0,0.0,92,-99.99,,,-99.99,,2013-01-07 00:12:00,
2013-01-06 19:23:00,35.0,33.0,30.06,West,277,1.0,9.0,92,-99.99,,,-99.99,,2013-01-07 00:23:00,
2013-01-06 19:33:00,35.0,33.0,30.07,West,280,2.0,8.0,93,-99.99,,,-99.99,,2013-01-07 00:33:00,
2013-01-06 19:42:00,35.0,33.0,30.07,West,280,2.0,8.0,93,-99.99,,,-99.99,,2013-01-07 00:42:00,
2013-01-06 19:52:00,35.0,33.0,30.07,WNW,293,3.0,9.0,93,-99.99,,,-99.99,,2013-01-07 00:52:00,
2013-01-06 20:02:00,35.0,33.0,30.08,WNW,301,3.0,7.0,94,-99.99,,,-99.99,,2013-01-07 01:02:00,
2013-01-06 20:12:00,35.0,33.0,30.08,West,271,4.0,9.0,94,-99.99,,,-99.99,,2013-01-07 01:12:00,
2013-01-06 20:23:00,35.0,33.0,30.08,West,271,4.0,9.0,94,-99.99,,,-99.99,,2013-01-07 01:23:00,
2013-01-06 20:32:00,35.0,33.0,30.09,WNW,294,4.0,9.0,94,-99.99,,,-99.99,,2013-01-07 01:32:00,
2013-01-06 20:42:00,35.0,33.0,30.09,WNW,294,4.0,9.0,94,-99.99,,,-99.99,,2013-01-07 01:42:00,
2013-01-06 20:52:00,35.0,33.0,30.09,West,276,5.0,8.0,94,-99.99,,,-99.99,,2013-01-07 01:52:00,
2013-01-06 21:02:00,35.0,33.0,30.09,West,274,2.0,7.0,94,-99.99,,,-99.99,,2013-01-07 02:02:00,
2013-01-06 21:12:00,35.0,33.0,30.09,West,274,2.0,7.0,94,-99.99,,,-99.99,,2013-01-07 02:12:00,
2013-01-06 21:22:00,35.0,33.0,30.10,NNW,328,2.0,6.0,94,-99.99,,,-99.99,,2013-01-07 02:22:00,
2013-01-06 21:32:00,35.0,34.0,30.11,NW,321,2.0,6.0,95,-99.99,,,-99.99,,2013-01-07 02:32:00,
2013-01-06 21:42:00,35.0,34.0,30.11,NW,321,2.0,6.0,95,-99.99,,,-99.99,,2013-01-07 02:42:00,
2013-01-06 21:53:00,35.0,34.0,30.11,WNW,293,2.0,7.0,95,-99.99,,,-99.99,,2013-01-07 02:53:00,
2013-01-06 22:02:00,35.0,34.0,30.12,WNW,295,2.0,6.0,95,-99.99,,,-99.99,,2013-01-07 03:02:00,
2013-01-06 22:12:00,35.0,34.0,30.12,WNW,295,2.0,6.0,95,-99.99,,,-99.99,,2013-01-07 03:12:00,
2013-01-06 22:22:00,35.0,34.0,30.12,West,266,5.0,9.0,95,-99.99,,,-99.99,,2013-01-07 03:22:00,
2013-01-06 22:33:00,35.0,34.0,30.13,WNW,298,3.0,9.0,95,-99.99,,,-99.99,,2013-01-07 03:33:00,
2013-01-06 22:43:00,35.0,34.0,30.13,WNW,298,3.0,9.0,95,-99.99,,,-99.99,,2013-01-07 03:43:00,
2013-01-06 22:52:00,35.0,34.0,30.14,West,277,3.0,10.0,95,-99.99,,,-99.99,,2013-01-07 03:52:00,
2013-01-06 23:02:00,34.0,32.0,30.15,NNE,23,6.0,13.0,94,-99.99,,,-99.99,,2013-01-07 04:02:00,
2013-01-06 23:12:00,34.0,32.0,30.15,NNE,23,6.0,13.0,94,-99.99,,,-99.99,,2013-01-07 04:12:00,
2013-01-06 23:22:00,34.0,32.0,30.15,NW,322,3.0,6.0,92,-99.99,,,-99.99,,2013-01-07 04:22:00,
2013-01-06 23:32:00,34.0,32.0,30.16,NW,315,2.0,7.0,91,-99.99,,,-99.99,,2013-01-07 04:32:00,
2013-01-06 23:42:00,34.0,32.0,30.16,NW,315,2.0,7.0,91,-99.99,,,-99.99,,2013-01-07 04:42:00,
2013-01-06 23:52:00,34.0,31.0,30.17,West,264,3.0,8.0,90,-99.99,,,-99.99,,2013-01-07 04:52:00,